Location: Campolattaro
(41.2833°N, 14.7333°E)
Time: 00:11:59
(UTC+00:00)

Meteor 1-20 Rocket - Pass Details

Date: 19 May 2025
Orbit: 818 x 890 km, 81.2° (Epoch: 23 June)

Event Time Altitude Azimuth Distance (km) Brightness Sun altitude
Rises 19:27:08 0° 349° (NNW) 3,475 8.3 -11.8°
Reaches altitude 10° 19:29:34 10° 348° (NNW) 2,542 7.5 -12.1°
Maximum altitude 19:35:22 80° 262° (W) 904 4.4 -12.9°
Drops below altitude 10° 19:41:10 10° 177° (S) 2,547 6.3 -13.7°
Enters shadow 19:41:30 - 177° (S) 2,673 6.4 -13.8°
